Overview Statistics Trail Chart Weather Telemetry Raw packets
 

This is the latest recevied weather packets stored in our database for station/object KC1BRV. If no packets are shown the sender has not sent any weather packets the latest 10 day(s).

<< 103 104 105 106 107 108 109 >>
Time Temp. Humidity Pressure Rain* Wind** Luminosity Snow
1787842414 25.56° C 73% 1019.8 hPa 0 mm - 585 W/m² -
1787842114 25° C 75% 1020 hPa 0 mm - 575 W/m² -
1787841816 25.56° C 74% 1019.9 hPa 0 mm - 100 W/m² -
1787841504 25.56° C 74% 1019.7 hPa 0 mm - 166 W/m² -
1787841203 25° C 75% 1019.8 hPa 0 mm - 626 W/m² -
1787840899 25° C 77% 1019.8 hPa 0 mm - 176 W/m² -
1787840594 24.44° C 80% 1019.8 hPa 0 mm - 143 W/m² -
1787840289 24.44° C 80% 1019.8 hPa 0 mm - 148 W/m² -
1787839988 24.44° C 81% 1019.8 hPa 0 mm - 109 W/m² -
1787839683 24.44° C 81% 1019.7 hPa 0 mm - 144 W/m² -
1787839383 24.44° C 83% 1020 hPa 0 mm - 168 W/m² -
1787839083 24.44° C 82% 1019.9 hPa 0 mm - 177 W/m² -
1787838782 24.44° C 84% 1019.9 hPa 0 mm - 142 W/m² -
1787838478 23.89° C 84% 1019.9 hPa 0 mm - 157 W/m² -
1787838176 23.89° C 86% 1019.9 hPa 0 mm - 92 W/m² -
1787837870 23.33° C 86% 1019.8 hPa 0 mm - 77 W/m² -
1787837570 23.33° C 86% 1019.9 hPa 0 mm - 70 W/m² -
1787837269 23.33° C 86% 1019.9 hPa 0 mm - 93 W/m² -
1787836965 22.78° C 88% 1019.8 hPa 0 mm - 83 W/m² -
1787836665 22.78° C 91% 1019.7 hPa 0 mm - 63 W/m² -
1787836364 22.22° C 96% 1019.8 hPa 0 mm - 71 W/m² -
1787836060 21.67° C 98% 1019.7 hPa 0 mm - 67 W/m² -
1787835756 21.67° C 99% 1019.6 hPa 0 mm - 67 W/m² -
1787835450 21.11° C 99% 1019.6 hPa 0 mm - 70 W/m² -
1787835145 20.56° C 99% 1019.7 hPa 0 mm - 82 W/m² -

* Rain latest hour (hover to see other rain measurements)
** Current wind speed in m/s (hover to see current wind gust speed)